Temperature
15 16 16 16 16 16 16 15 14 15 15 16 16 17 17 18 18 18 18 18 18 18 17 17 17 17 17 17 16 16 16 16 16 16 16 16 16 15 15 15 15 15 15 15
15 16 16 16 16 16 16 16 15 16 16 16 17 17 17 17 17 17 17 17 18 17 17 17 17 17 17 16 16 16 16 16 16 16 16 16 16 15 15 15 15 15 15 15
13 14 15 15 16 16 16 16 16 15 16 16 16 16 17 17 17 17 17 17 17 17 17 17 17 17 16 16 16 16 16 16 16 16 16 16 15 15 15 15 15 15 15 15
12 13 14 15 16 17 16 16 16 16 16 16 17 17 17 18 17 17 17 17 17 17 17 17 17 17 16 16 16 16 16 16 16 16 16 15 15 15 15 15 15 15 15 15
11 12 13 15 16 16 16 15 15 15 16 16 17 16 16 17 17 17 17 18 17 17 17 17 16 16 16 16 16 16 16 16 16 16 15 15 15 15 15 15 15 15 14 14
11 12 13 14 16 16 16 15 15 15 15 15 15 13 14 17 17 17 17 18 17 17 17 16 16 16 16 16 16 16 15 15 15 15 15 15 15 15 15 15 15 14 14 14
11 11 12 14 15 16 14 14 15 15 15 15 14 15 16 16 16 17 17 17 17 17 16 16 16 16 16 16 16 15 15 15 15 15 15 15 15 15 15 15 15 14 14 14
10 11 12 14 15 14 14 15 15 15 15 15 15 15 16 16 16 16 16 17 17 17 16 16 16 16 15 15 15 15 15 15 15 15 15 15 15 15 15 14 14 14 14 14
11 12 13 15 15 15 15 15 15 15 15 15 15 15 15 15 15 16 16 16 16 16 16 16 16 16 15 15 15 15 15 15 15 15 15 15 15 15 14 14 14 14 14 14
11 12 13 14 15 15 15 15 15 15 15 15 14 14 14 14 15 15 15 16 16 15 15 15 15 15 15 15 15 15 15 15 15 15 14 14 14 14 14 14 14 14 14 14
10 11 13 13 14 14 15 15 15 15 15 15 14 14 14 14 14 15 15 15 15 15 15 15 15 15 15 15 15 15 15 14 14 14 14 14 14 14 14 14 14 14 14 14
10 12 11 13 13 14 14 14 14 14 14 14 14 14 14 14 14 14 15 15 15 15 15 15 15 15 15 15 15 15 14 14 14 14 14 14 14 14 14 14 14 14 14 14
12 13 13 13 13 13 13 13 13 14 13 13 13 13 14 14 14 14 14 14 14 14 14 14 14 14 14 14 14 14 14 14 14 14 14 14 14 14 14 14 13 13 13 13
12 12 12 12 12 12 13 13 13 13 13 13 13 13 13 14 14 14 14 14 14 14 14 14 14 14 14 14 14 14 14 14 14 14 14 14 14 13 13 13 13 13 13 13
12 12 12 12 12 12 12 12 12 12 12 12 12 12 13 13 13 13 13 13 13 13 13 14 14 14 14 14 14 14 14 14 14 14 14 13 13 13 13 13 13 13 13 13
12 12 11 11 11 11 12 12 12 11 12 12 12 12 12 12 13 13 13 13 13 13 13 13 13 13 13 13 13 13 13 13 13 13 13 13 13 13 13 13 13 13 13 13
11 11 11 11 11 11 11 11 11 11 11 12 12 12 12 12 12 12 12 12 13 13 13 13 13 13 13 13 13 13 13 13 13 13 13 13 13 13 13 13 12 12 12 12
10 10 10 10 10 10 11 11 11 11 11 11 11 11 11 11 11 12 12 12 12 12 12 12 12 12 12 12 12 12 12 12 12 12 12 12 12 12 12 12 12 12 12 12
10 10 10 10 10 10 10 10 10 11 11 11 11 11 11 11 11 11 11 11 11 12 12 12 12 12 12 12 12 12 12 12 12 12 12 12 12 12 12 12 12 12 12 11
9 9 9 9 9 9 9 10 10 10 10 10 10 10 10 10 10 10 10 10 11 11 11 11 11 11 11 11 11 11 12 12 12 12 12 12 12 12 12 12 12 11 11 11
9 9 9 9 9 9 9 9 9 9 9 9 9 9 9 9 9 10 10 10 10 10 10 10 10 11 11 11 11 11 11 11 11 11 11 11 11 11 11 11 11 11 11 11
8 8 8 8 8 8 8 9 9 9 8 8 9 9 9 9 9 9 9 9 9 9 10 10 10 10 10 10 10 10 10 10 11 11 11 11 11 11 11 11 11 11 11 10
8 8 8 8 8 8 8 8 8 8 8 8 8 8 8 8 8 8 8 9 9 9 9 9 10 10 10 10 10 10 10 10 10 10 10 11 11 11 11 10 10 10 10 10
7 7 7 7 7 7 7 7 7 7 7 7 7 7 7 7 7 8 8 8 8 8 8 9 9 9 9 9 9 9 9 9 10 10 10 10 10 10 10 10 10 10 10 9
7 7 7 7 6 6 6 6 7 7 7 7 7 7 7 7 7 7 7 7 8 8 8 8 8 9 9 9 9 9 9 9 9 9 9 9 10 9 9 9 9 9 9 9
6 6 6 6 6 6 6 6 6 6 6 6 6 6 6 6 6 7 7 7 7 7 7 8 8 8 8 8 8 8 8 8 9 9 9 9 9 9 9 9 9 9 9 9
6 6 6 6 6 5 5 5 5 5 5 5 5 5 5 6 6 6 6 6 6 6 7 7 7 7 7 7 7 8 8 8 8 8 8 8 8 8 8 8 8 8 8 8
Wind_Speed
6 7 5 6 7 6 6 7 7 8 8 9 7 6 5 3 2 1 2 4 4 5 4 4 4 5 5 5 5 5 6 7 7 6 5 5 5 5 5 5 5 5 5 5
5 5 5 7 8 8 8 7 7 7 9 8 6 3 2 2 2 2 2 4 5 5 5 5 5 6 6 6 6 5 6 7 6 6 5 5 6 6 5 5 5 5 5 5
5 6 4 7 7 8 6 6 6 9 9 5 4 5 6 5 4 4 4 4 5 6 6 6 6 7 8 7 6 5 6 6 6 6 6 6 6 6 6 5 5 5 5 5
2 2 6 8 5 4 4 4 4 4 4 5 6 6 6 5 5 5 5 5 5 5 5 5 4 5 6 6 6 6 5 6 6 7 7 6 6 6 5 4 5 5 5 5
2 4 8 7 4 2 2 5 2 1 2 3 2 1 3 4 5 7 7 7 6 6 6 6 5 5 6 6 6 6 5 6 7 7 8 7 7 6 5 5 4 4 5 5
3 4 7 6 4 3 1 4 4 1 1 2 1 1 6 5 4 5 5 5 5 5 5 6 5 5 6 6 6 6 6 6 6 7 8 8 8 6 5 5 5 5 5 5
5 6 7 6 4 2 2 6 5 2 3 3 4 6 7 5 4 4 5 5 5 5 6 6 6 6 6 6 6 6 5 5 6 7 8 8 7 5 6 5 5 5 5 4
5 6 8 4 0 3 6 4 3 3 3 3 4 4 4 4 4 4 3 4 4 5 6 6 7 7 7 6 6 4 4 5 5 6 6 6 7 6 6 6 6 5 4 3
7 7 5 4 4 5 4 3 4 3 4 3 3 4 4 4 4 4 4 3 3 4 5 5 7 8 8 6 5 5 5 5 5 5 5 6 7 7 6 6 5 5 5 5
4 6 6 5 5 5 4 4 5 5 3 3 4 4 4 4 4 3 3 3 3 4 5 5 6 7 7 6 6 6 6 5 5 5 5 5 5 6 6 6 5 5 6 5
6 8 6 5 5 5 6 5 5 4 3 3 4 5 5 4 4 3 3 3 3 5 6 6 6 6 6 7 7 7 6 5 5 5 6 6 5 5 6 6 7 8 7 7
8 8 6 8 7 7 6 6 5 5 5 5 5 5 5 4 4 3 3 3 3 4 5 5 5 5 6 7 8 7 5 5 5 4 5 5 5 3 3 3 6 7 7 7
10 10 9 10 9 7 7 7 6 5 5 5 5 5 5 4 4 3 3 3 4 5 5 5 6 5 5 7 8 8 7 6 5 5 5 6 6 5 4 1 2 5 7 8
8 7 8 9 9 9 8 7 6 5 6 5 5 4 4 4 4 3 3 4 4 4 4 5 6 6 6 7 8 7 6 7 7 6 6 6 6 6 6 5 4 2 3 6
7 7 8 8 7 7 6 5 4 5 6 5 4 4 4 4 4 4 4 3 2 2 3 3 5 6 5 6 7 7 6 5 5 5 5 6 6 5 5 5 5 4 2 3
6 6 5 6 6 7 5 5 5 5 5 5 4 4 4 4 3 3 3 2 3 3 4 4 4 5 5 6 7 6 6 7 6 5 5 6 6 6 6 6 5 5 5 5
5 6 6 6 7 6 5 5 5 5 5 4 4 4 3 3 2 2 2 2 3 4 4 4 4 3 5 6 6 5 5 5 7 5 5 6 6 7 6 6 6 6 5 6
5 6 6 6 6 6 5 5 5 5 5 5 4 3 2 2 2 2 2 2 1 1 2 3 3 2 3 4 5 5 5 5 5 5 5 6 6 6 6 6 6 6 4 5
5 5 5 5 5 4 4 5 4 4 4 3 3 3 3 3 3 2 1 1 1 2 3 2 1 1 2 3 4 4 5 5 5 4 5 6 6 5 6 6 6 5 5 5
4 5 4 4 4 3 3 4 3 3 3 3 2 2 2 2 2 1 1 2 2 2 2 1 1 1 2 3 4 4 5 5 5 5 5 5 6 6 6 6 6 6 6 6
5 5 4 3 4 3 3 3 2 3 3 3 2 2 2 2 2 1 1 2 4 3 1 1 1 1 2 2 3 3 4 5 5 5 5 5 6 6 6 6 6 6 6 6
4 4 4 3 3 4 3 3 2 2 3 3 3 2 1 2 2 2 2 2 3 3 2 1 2 1 2 2 3 3 4 4 4 4 4 5 6 6 6 6 6 6 6 6
4 3 3 3 2 3 3 3 3 2 2 2 2 2 2 2 2 2 2 3 2 2 2 2 2 1 2 2 3 3 4 4 4 4 4 5 5 6 6 6 6 6 6 6
3 3 3 3 3 2 3 4 4 3 2 2 2 2 1 2 2 2 1 2 3 3 2 2 2 2 2 2 3 3 4 4 4 4 4 4 5 5 5 5 5 5 5 6
3 3 2 2 2 2 3 3 3 3 3 3 3 3 2 1 2 2 2 2 2 3 2 2 2 2 1 2 3 3 3 4 4 4 4 4 4 5 5 5 5 5 5 5
3 2 3 3 3 3 2 2 2 2 2 3 4 3 3 2 2 1 1 1 1 2 2 2 2 1 1 2 3 3 3 4 3 3 4 4 5 5 5 5 5 5 5 5
2 2 2 2 2 2 2 2 2 2 2 2 3 3 3 2 2 2 1 1 1 2 2 1 1 1 1 2 3 3 3 3 3 4 4 4 4 4 5 6 5 5 5 5
Wind_Direction
245 251 244 252 257 243 225 211 214 239 241 254 251 244 250 257 257 200 182 176 178 181 184 175 170 171 174 177 175 169 166 171 180 181 176 172 169 167 160 157 158 159 151 146
285 276 264 263 261 250 243 229 231 244 257 255 245 233 235 229 205 225 225 200 188 184 180 182 184 182 180 183 183 172 173 178 175 168 160 160 163 159 153 154 151 145 149 151
273 296 314 265 245 232 238 231 214 235 246 250 242 221 213 211 205 212 226 217 198 189 187 193 193 189 187 187 179 171 177 176 171 166 163 165 161 149 154 158 152 147 153 150
250 328 245 249 249 224 234 258 251 238 236 222 221 228 219 206 204 226 222 210 201 200 195 195 188 182 179 173 170 174 178 178 175 171 169 162 155 154 154 155 156 156 158 159
177 235 267 280 282 253 242 269 288 292 290 283 265 340 290 245 216 217 217 208 203 200 192 187 184 175 165 169 172 174 183 187 184 175 168 165 166 167 159 152 156 153 151 154
179 211 238 248 277 290 173 258 297 287 265 300 28 261 260 266 257 237 229 210 198 189 178 179 185 163 162 175 176 186 195 193 186 179 172 173 176 170 159 156 162 155 148 156
209 232 257 261 281 23 183 250 283 264 251 245 233 234 252 256 257 252 229 215 193 180 181 188 180 162 167 178 193 199 192 183 178 180 180 175 169 162 157 154 153 156 155 160
192 223 250 268 176 184 237 261 255 261 255 259 273 284 280 253 249 249 231 212 194 186 191 188 177 168 176 192 199 187 173 171 173 176 179 169 160 160 158 156 157 163 161 163
203 222 245 250 239 253 245 256 259 253 269 260 270 277 277 271 259 246 229 218 204 192 189 188 184 178 184 199 183 171 166 174 175 174 173 165 163 163 162 162 166 174 174 182
250 259 265 273 275 277 262 260 264 254 251 239 254 260 265 266 262 255 243 220 208 190 185 196 196 191 189 181 167 160 164 172 170 171 171 168 167 168 168 174 178 182 186 192
263 273 288 276 272 279 285 283 279 276 261 243 254 262 264 259 256 254 260 247 215 202 199 203 198 196 189 172 163 163 167 171 173 173 173 171 172 179 183 190 190 188 195 191
246 247 245 265 276 290 286 274 266 271 284 278 260 261 265 255 256 252 251 245 231 217 207 204 196 198 191 175 165 166 172 177 179 177 174 169 169 171 193 189 194 195 193 187
246 254 253 265 276 279 279 273 269 268 268 277 281 270 263 264 262 257 252 245 228 221 214 204 198 197 196 180 171 173 181 184 182 181 178 175 174 175 181 190 171 187 193 194
255 259 269 270 270 275 277 274 277 279 276 273 280 280 269 270 270 261 259 254 229 218 216 209 201 204 200 182 176 181 185 188 183 184 184 183 184 185 183 180 186 207 203 191
264 253 254 267 276 282 280 275 279 281 283 285 285 288 276 260 259 262 262 256 214 200 214 210 208 211 200 183 179 184 186 188 185 183 184 182 180 180 183 184 187 188 174 178
275 283 276 272 274 281 275 262 261 268 275 280 283 286 283 270 266 274 269 228 194 209 217 218 225 221 199 186 183 187 192 191 182 178 180 181 179 179 183 186 187 189 194 189
270 275 278 275 270 269 264 260 256 262 274 277 274 280 286 292 299 294 287 268 226 215 217 220 231 230 206 193 187 190 189 190 183 178 184 186 185 186 187 187 191 196 202 193
255 256 256 256 259 267 279 278 274 274 271 272 270 274 269 257 252 263 274 299 302 259 245 230 228 228 212 198 192 185 184 188 187 187 188 188 188 186 184 187 193 192 187 181
293 292 294 283 269 268 276 281 286 287 285 288 277 272 274 267 256 260 271 290 248 240 266 256 235 211 214 201 189 182 183 187 187 187 187 186 182 181 181 185 189 189 184 179
314 312 307 306 302 287 276 285 296 302 298 301 294 288 293 290 276 272 289 279 269 255 249 249 225 228 235 210 194 186 185 185 186 188 187 187 186 185 186 187 187 188 188 189
318 315 315 307 301 293 283 289 302 312 315 319 303 274 272 283 282 265 273 293 297 306 280 249 234 241 233 214 195 185 183 184 186 189 191 194 191 187 187 186 187 190 192 195
318 317 318 308 302 305 306 311 311 314 322 330 326 309 306 308 309 312 290 264 276 298 308 268 250 250 239 207 193 185 185 187 189 192 193 193 191 188 189 189 190 193 193 195
315 316 323 320 311 315 328 330 322 313 315 321 313 306 301 292 272 247 282 295 295 296 297 267 252 238 232 210 196 189 189 190 192 196 200 198 195 191 191 192 192 192 192 192
318 315 320 325 338 351 332 320 322 322 327 330 319 306 302 318 318 299 265 278 295 299 293 265 254 238 223 207 189 188 190 192 193 194 198 197 192 189 189 190 192 192 192 190
304 309 318 329 326 309 300 310 333 347 350 340 331 324 314 292 278 287 296 285 288 310 306 289 273 247 210 186 186 189 195 197 194 190 194 194 190 186 186 189 191 189 188 190
289 291 287 280 279 288 295 300 310 319 328 330 329 328 325 322 318 307 306 302 299 309 312 303 281 257 223 196 192 197 197 196 196 195 197 195 191 187 185 188 189 190 190 189
311 312 319 323 316 308 305 300 293 298 295 291 306 311 309 312 317 315 317 317 315 313 317 315 301 260 237 213 200 200 201 198 197 197 198 196 194 194 192 191 191 190 188 185
Height
1522 1518 1517 1517 1516 1515 1519 1522 1526 1520 1516 1509 1505 1504 1502 1501 1501 1501 1500 1500 1500 1501 1502 1503 1504 1505 1507 1509 1511 1513 1515 1517 1518 1520 1522 1524 1526 1528 1529 1531 1532 1534 1535 1536
1521 1516 1515 1515 1511 1510 1511 1511 1513 1512 1510 1502 1501 1502 1501 1500 1500 1500 1499 1499 1499 1500 1501 1501 1502 1504 1505 1507 1509 1511 1513 1515 1517 1519 1520 1522 1524 1526 1528 1529 1531 1532 1533 1535
1529 1520 1516 1518 1509 1507 1506 1504 1506 1509 1504 1499 1500 1499 1498 1498 1498 1498 1498 1497 1497 1498 1499 1500 1501 1502 1503 1505 1507 1509 1511 1513 1515 1517 1518 1520 1522 1524 1526 1527 1529 1530 1532 1533
1530 1526 1528 1512 1499 1499 1500 1500 1499 1497 1496 1495 1495 1495 1495 1495 1496 1495 1495 1495 1495 1496 1497 1498 1499 1500 1502 1503 1505 1507 1509 1511 1513 1515 1516 1518 1520 1522 1524 1526 1527 1528 1530 1532
1530 1529 1519 1506 1499 1498 1500 1499 1496 1496 1495 1494 1493 1492 1493 1493 1493 1492 1492 1493 1493 1494 1495 1496 1497 1498 1500 1501 1503 1505 1506 1508 1510 1512 1514 1516 1518 1520 1522 1523 1525 1527 1528 1530
1526 1526 1522 1506 1496 1493 1496 1500 1494 1493 1493 1492 1492 1496 1492 1490 1490 1489 1489 1490 1490 1491 1493 1494 1495 1496 1497 1499 1500 1502 1504 1506 1508 1510 1512 1514 1515 1518 1519 1521 1523 1525 1527 1528
1522 1521 1511 1498 1494 1493 1504 1501 1492 1491 1490 1490 1490 1490 1488 1487 1487 1487 1487 1487 1487 1488 1489 1491 1492 1493 1494 1496 1498 1500 1501 1503 1505 1508 1510 1511 1513 1516 1517 1519 1521 1523 1525 1527
1518 1518 1511 1493 1493 1496 1495 1490 1489 1488 1488 1487 1486 1485 1485 1484 1484 1484 1483 1484 1484 1485 1486 1488 1490 1491 1492 1493 1495 1497 1499 1501 1503 1505 1507 1509 1511 1513 1515 1517 1519 1521 1523 1524
1505 1503 1493 1490 1490 1489 1488 1487 1486 1485 1485 1484 1483 1483 1483 1482 1481 1480 1481 1481 1481 1482 1483 1485 1487 1488 1489 1491 1492 1495 1497 1498 1500 1502 1505 1507 1509 1510 1512 1514 1516 1518 1520 1521
1498 1493 1490 1488 1488 1487 1486 1484 1483 1482 1482 1481 1479 1479 1478 1478 1477 1477 1478 1478 1478 1479 1480 1482 1483 1485 1487 1488 1490 1491 1494 1496 1497 1499 1501 1503 1506 1507 1509 1511 1513 1515 1517 1518
1495 1490 1487 1485 1484 1484 1483 1481 1480 1479 1478 1477 1476 1475 1475 1473 1473 1473 1474 1474 1475 1475 1476 1478 1480 1482 1484 1485 1487 1488 1490 1493 1495 1496 1498 1500 1502 1504 1506 1508 1510 1511 1513 1515
1490 1486 1485 1482 1480 1480 1479 1477 1476 1476 1474 1474 1473 1471 1471 1470 1469 1469 1470 1471 1471 1472 1473 1474 1476 1478 1480 1482 1483 1485 1487 1489 1491 1493 1495 1497 1499 1501 1504 1506 1507 1509 1511 1512
1481 1480 1479 1477 1476 1475 1474 1473 1472 1471 1470 1469 1468 1467 1466 1466 1466 1466 1466 1467 1467 1468 1469 1471 1472 1474 1476 1478 1480 1482 1484 1486 1488 1489 1491 1493 1495 1497 1499 1502 1504 1505 1507 1508
1476 1475 1474 1472 1471 1470 1469 1468 1467 1466 1466 1465 1464 1463 1462 1462 1462 1462 1462 1463 1463 1464 1465 1467 1468 1470 1472 1474 1476 1478 1480 1482 1484 1485 1487 1489 1491 1493 1495 1497 1499 1501 1503 1504
1471 1470 1469 1467 1466 1465 1464 1463 1463 1462 1461 1461 1461 1459 1459 1458 1458 1458 1459 1459 1460 1460 1461 1462 1464 1465 1468 1470 1472 1474 1476 1478 1480 1481 1483 1485 1488 1490 1492 1494 1495 1497 1498 1500
1466 1465 1464 1463 1462 1461 1460 1459 1458 1457 1457 1457 1456 1456 1455 1455 1454 1454 1455 1455 1456 1456 1457 1458 1460 1461 1464 1465 1467 1470 1472 1473 1475 1477 1479 1481 1483 1485 1488 1489 1491 1493 1494 1496
1462 1461 1460 1459 1458 1457 1456 1455 1454 1453 1453 1452 1452 1452 1452 1451 1450 1450 1451 1451 1452 1452 1453 1454 1456 1457 1459 1461 1463 1465 1467 1469 1471 1473 1475 1477 1479 1481 1483 1485 1487 1488 1490 1491
1458 1457 1456 1455 1454 1453 1451 1451 1450 1449 1448 1448 1448 1448 1448 1447 1447 1446 1447 1447 1448 1448 1449 1451 1452 1453 1455 1457 1459 1461 1462 1464 1466 1468 1470 1472 1474 1476 1478 1480 1482 1484 1485 1487
1455 1453 1452 1451 1450 1449 1448 1447 1446 1445 1445 1445 1444 1444 1443 1443 1443 1443 1443 1443 1443 1444 1445 1446 1448 1449 1450 1452 1454 1456 1458 1460 1462 1463 1465 1467 1470 1471 1473 1475 1477 1479 1480 1482
1451 1449 1448 1447 1446 1445 1445 1444 1443 1442 1441 1441 1441 1440 1440 1440 1440 1439 1439 1440 1440 1441 1442 1443 1444 1445 1446 1448 1450 1451 1453 1455 1457 1458 1460 1462 1464 1466 1468 1470 1472 1474 1476 1477
1448 1446 1444 1442 1442 1442 1441 1440 1439 1438 1438 1437 1436 1436 1436 1436 1436 1436 1436 1436 1437 1438 1439 1440 1440 1441 1442 1444 1446 1447 1448 1450 1452 1454 1455 1457 1459 1461 1463 1465 1467 1469 1471 1472
1445 1443 1441 1440 1439 1438 1437 1437 1436 1435 1435 1434 1433 1433 1433 1433 1433 1433 1433 1434 1434 1434 1435 1436 1436 1437 1438 1439 1441 1442 1444 1446 1447 1449 1451 1452 1454 1456 1457 1459 1461 1463 1465 1467
1443 1441 1439 1438 1437 1435 1435 1434 1433 1433 1432 1431 1431 1430 1430 1430 1430 1430 1430 1430 1431 1431 1432 1432 1432 1433 1434 1435 1436 1438 1440 1441 1443 1444 1446 1448 1449 1451 1453 1454 1456 1458 1460 1462
1440 1439 1437 1436 1435 1433 1432 1432 1431 1431 1430 1429 1429 1428 1428 1427 1426 1427 1427 1427 1427 1428 1428 1428 1428 1429 1430 1431 1432 1433 1435 1437 1438 1440 1442 1443 1445 1446 1448 1450 1451 1453 1455 1456
1439 1437 1436 1434 1433 1431 1430 1429 1428 1428 1427 1427 1426 1426 1426 1425 1424 1424 1424 1424 1424 1424 1424 1424 1425 1425 1426 1427 1428 1429 1431 1432 1434 1435 1437 1438 1440 1442 1443 1445 1446 1448 1450 1451
1436 1435 1434 1432 1431 1430 1429 1427 1426 1426 1425 1424 1424 1423 1423 1422 1421 1421 1421 1421 1420 1420 1420 1420 1421 1421 1422 1423 1424 1425 1426 1428 1430 1431 1433 1434 1436 1437 1439 1440 1442 1443 1445 1447
1434 1433 1432 1430 1429 1428 1427 1425 1424 1423 1423 1422 1421 1421 1420 1420 1419 1419 1418 1418 1417 1417 1416 1416 1417 1417 1418 1419 1420 1421 1422 1424 1425 1427 1428 1430 1431 1433 1434 1436 1437 1439 1440 1442